Hourly Data Report for October 30, 2016

All times are specified in Local Standard Time (LST). Add 1 hour to adjust for Daylight Saving Time where and when it is observed.

KUGAARUK CLIMATE
NUNAVUT

68°32'15.060" N
89°47'47.020" W
15.80 m
2303094
71407
NBB

Download Data

Hourly Data (October 2016)
Hourly Data Report for October 30, 2016
Temp Definition
°C
Dew Point Temp Definition
°C
Rel Hum Definition
%
Wind Dir Definition
10's deg

Wind Spd Definition
km/h
Visibility Definition
km
Stn Press Definition
kPa
Hmdx Definition


Wind Chill Definition


Weather Definition


TIME
00:00 -10.0 -11.3 91 24 27   100.07   -19 LegendNANA
01:00 -4.4 -4.8 97 35 16   100.02   -10 LegendNANA
02:00 -4.3 -5.1 95 2 31   100.00   -12 LegendNANA
03:00 -4.5 -5.3 94 1 34   100.01   -13 LegendNANA
04:00 -4.6 -5.4 94 2 36   100.02   -13 LegendNANA
05:00 -4.6 -5.5 94 1 35   100.05   -13 LegendNANA
06:00 -4.3 -5.1 94 1 34   100.07   -13 LegendNANA
07:00 -4.3 -5.2 93 1 37   100.07   -13 LegendNANA
08:00 -4.0 -4.9 93 1 37   100.09   -12 LegendNANA
09:00 -3.9 -4.9 93 1 28   100.13   -11 LegendNANA
10:00 -3.9 -5.1 91 1 37   100.16   -12 LegendNANA
11:00 -4.3 -5.8 89 2 35   100.17   -13 LegendNANA
12:00 -5.3 -6.9 89 2 27   100.22   -13 LegendNANA
13:00 -5.3 -7.0 88 2 23   100.29   -12 LegendNANA
14:00 -5.1 -6.9 87 1 32   100.32   -13 LegendNANA
15:00 -5.6 -7.3 88 1 26   100.35   -13 LegendNANA
16:00 -4.8 -6.7 87 2 33   100.38   -13 LegendNANA
17:00 -4.5 -6.6 85 1 32   100.43   -13 LegendNANA
18:00 -4.6 -6.7 85 1 31   100.44   -13 LegendNANA
19:00 -5.2 -7.0 87 2 34   100.44   -14 LegendNANA
20:00 -5.0 -6.6 89 2 33   100.45   -13 LegendNANA
21:00 -5.7 -6.9 91 1 36   100.45   -15 LegendNANA
22:00 -6.1 -7.1 93 1 37   100.45   -15 LegendNANA
23:00 -6.8 -7.9 92 1 36   100.49   -16 LegendNANA

Notes on Data Quality.

Legend

  • E = Estimated
  • M = Missing
  • NA = Not Available
  • ‡ = Partner data that is not subject to review by the National Climate Archives
Date modified: